Showing default

COSMOS 2544 (GLONASS), 44850

Orbit data source: Space-Track

COSMOS 2544 (GLONASS), 44850 is a Commonwealth of Independent States-origin payload satellite in MEO that was launched on Wed, 11 Dec 2019 UTC via a SOYUZ-2-1B launch vehicle from the Plesetsk Missile And Space Complex (PKMTR). Payload-class satellites include a variety of spacecraft equipped with specific instruments for various scientific and technological missions. These include communications satellites like Starlink; space stations such as the ISS; scientific satellites like the Hubble; Earth observation satellites from companies like Planet Labs, Umbra, and HawkEye 360; GPS; miniature CubeSats for education and research; and military/defense satellites.

Loading next visibility...
Identifier
44850, 2019-088A
Orbit
MEO
Country
Flag of CISCIS
Related business
Manufacturer
Resehetnev ISS
Mission
Operational Defense Navigation
Bus & Motor
URAGAN, Unknown motor
Mass
1,450 kg wet, ~1,200 kg dry
Launch date (UTC)
2019-12-11 (7 years ago)
Launch vehicle
SOYUZ-2-1B
Launch site
Plesetsk Missile And Space Complex (PKMTR)
Object type
Payload
Rocket body
Debris
Shape & HBR
Cyl + 1 Ant + 2 Pan, Unknown HBR
Radar Cross Section
8.467 m², Large (>1 m²)

Expand to show TLE details & history
Last TLE update: 4 days ago

TLE from 4 days ago
0 COSMOS 2544 (GLONASS)
1 44850U 19088A   26169.43716075 -.00000023  00000-0  00000-0 0  9990
2 44850  65.5663  73.6893 0013128 258.8621 101.0278  2.13102753 50746
Epoch: 2026-06-18T10:29Z
TLE epoch observation values (Epoch: 2026-06-18T10:29:30.688Z)
Latitude
-0.00003°
Longitude
9.6441°
Altitude
19,136.885 km
Speed
3.952 km/s
True Right ascension
04h 54m 48s
True Declination
0° 00' 00"
Sunlit
Object was in daylight at epoch
Visualization orbit readout
Latitude
Unknown
Longitude
Unknown
Altitude
Unknown
Speed
Unknown
Apparent Right ascension
Unknown
Apparent Declination
Unknown
Sunlit
N/A
Visualization observer readout
Local Sidereal Time
21:43:00
Azimuth
Unknown
Elevation
Unknown
Doppler factor
Unknown
Orbital elements
Apogee altitude
19,162.909 km
Perigee altitude
19,095.936 km
Semi-major axis
25,507.56 km
Eccentricity
0.00131
Inclination
65.5663°
RAAN
73.6893°
Arg. of periapsis
258.8621°
True anomaly
101.17541°
Mean anomaly
101.0278°
Eccentric anomaly
101.10161°
Mean motion
0.53277 °/min
Orbital period
675.71 mins
BSTAR
0
Loading maneuver chart data...
Computing Atmospheric mass density...
Loading historical data...
Loading historical data...
Loading historical data...
Loading historical data...
Loading historical data...
Loading historical data...
Loading historical data...
Other satellites on launch #88 in the year 2019 (2019-12-11 UTC)

Documentation

Showing up to 5 results
|